Regional Weather Roundup
Issued by NWS

Home | Current Version | Previous Version | Graphics & Text | Print | Product List | Glossary On
Versions: 1 2 3 4 5 6 7 8 9 10 11 12 13 14 15 16 17 18 19 20 21 22 23 24 25 26 27 28 29 30 31 32 33 34 35 36 37 38 39 40 41 42 43 44 45 46 47 48 49 50
000
ASUS43 KTOP 260508
RWRKS

WEATHER ROUNDUP FOR KANSAS
NATIONAL WEATHER SERVICE GOODLAND KS
1200 AM CDT WED APR 26 2017

NOTE:  "FAIR" INDICATES FEW OR NO CLOUDS BELOW 12,000 FEET WITH NO
SIGNIFICANT WEATHER AND/OR OBSTRUCTIONS TO VISIBILITY.

KSZ001>006-013>018-027>032-041>047-260600-
NORTHWEST KANSAS

CITY           SKY/WX    TMP DP  RH WIND       PRES   REMARKS
GOODLAND       CLOUDY    39  36  89 N17       29.74F WCI  30
HAYS           CLOUDY    42  36  79 N24G30    29.66F
HILL CITY      CLOUDY    41  36  82 N20G28    29.73R
RUSSELL        CLOUDY    42  36  79 N20G29    29.65F
$$

KSZ061>065-074>080-084>089-260600-
SOUTHWEST KANSAS

CITY           SKY/WX    TMP DP  RH WIND       PRES   REMARKS
DODGE CITY     CLOUDY    45  42  89 N24G30    29.63S
ELKHART          N/A     47  42  83 N8          N/A
GARDEN CITY    CLOUDY    46  40  79 N22G29    29.67R
GREAT BEND     CLOUDY    42  39  89 N23       29.63F
PRATT          CLOUDY    43  39  87 N22G30    29.58S
$$

KSZ066>073-081>083-090>101-260600-
SOUTHEAST KANSAS

CITY           SKY/WX    TMP DP  RH WIND       PRES   REMARKS
CHANUTE        LGT RAIN  56  53  90 N7        29.49F
COFFEYVILLE    TSTM      58  56  93 N12       29.47R FOG
HUTCHINSON     CLOUDY    45  40  82 N21G31    29.58F
MEDICINE LODGE   N/A     47  42  83 N22G31    29.55R
NEWTON         CLOUDY    44  41  89 N22       29.56R
PARSONS        RAIN      57  54  89 N7G17     29.46F
WICHITA INTL   MOCLDY    47  43  86 N20G32    29.54R
WICHITA JABRA  CLOUDY    46  43  89 N22       29.53S
WICHITA MCCONL CLOUDY    47  42  81 N15G25    29.53R
WINFIELD       CLOUDY    52  46  80 N18       29.51S
$$

KSZ007>012-019>026-033>040-048>060-102>105-260600-
NORTHEAST KANSAS

CITY           SKY/WX    TMP DP  RH WIND       PRES   REMARKS
CONCORDIA      CLOUDY    42  37  82 N17G26    29.64F
EMPORIA        CLOUDY    48  45  89 N15G23    29.54R
LAWRENCE       CLOUDY    50  47  89 NW9       29.53F
MANHATTAN      CLOUDY    46  41  82 VRB6G17   29.59F
MARYSVILLE     CLOUDY    43  39  87 N20G28    29.60S
OLATHE IND     LGT RAIN  51  49  92 NW12      29.51S
OLATHE EXE     LGT RAIN  51  51 100 N13       29.50R
SALINA         CLOUDY    46  39  76 N23G29    29.61F
TOPEKA BILLARD CLOUDY    48  46  93 NW9       29.53F
TOPEKA FORBES  CLOUDY    49  45  86 N12       29.52F
$$




USA.gov is the U.S. government's official web portal to all federal, state and local government web resources and services.